Teller, AK

9:30 AM AKST on December 12, 2017 (GMT -0900)
Teller

Weather History for PATE - February, 2014

Change the Weather History Date:

Monday, February 3, 2014

  Actual Average (PATC) Record (PATC)
Temperature  
Mean Temperature 17 °F -  
Max Temperature 19 °F 3 °F 33 °F (2007)
Min Temperature 15 °F -4 °F -36 °F (2006)
Degree Days  
Heating Degree Days 48    
Moisture  
Dew Point 14 °F    
Average Humidity 82    
Maximum Humidity 88    
Minimum Humidity 77    
Precipitation  
Precipitation 0.00 in - - ()
Sea Level Pressure  
Sea Level Pressure 30.45 in    
Wind  
Wind Speed 11 mph (ESE)    
Max Wind Speed 23 mph    
Max Gust Speed -    
Averages and records for this station are not official NWS values.
T = Trace of Precipitation, MM = Missing Value Source: NWS Daily Summary

Daily Weather History Graph

Daily Weather History Graph

Search for Another Location

Airport or City:

Trip Planner

Search our weather history database for the weather conditions in past years. The results will help you decide how hot, cold, wet, or windy it might be!

Date:

Astronomy

Feb. 03, 2014 Rise Set
Actual Time 10:46 AM AKST 5:52 PM AKST
Civil Twilight 9:47 AM AKST 6:51 PM AKST
Nautical Twilight 8:46 AM AKST 7:52 PM AKST
Astronomical Twilight 7:49 AM AKST 8:50 PM AKST
Moon 10:53 AM AKST (2/3) No Moon Set
Length of Visible Light 9h 04m
Length of Day
7h 05m
Waxing Crescent, 21% of the Moon is Illuminated
Feb 3
Waxing Crescent
Feb 6
First Quarter
Feb 14
Full
Feb 22
Last Quarter
Feb 28
New

Hourly Weather History & Observations

Time (AKST) Temp. Windchill Dew Point Humidity Pressure Visibility Wind Dir Wind Speed Gust Speed Precip Events Conditions
12:58 AM 15.1 °F 9.4 °F 10.0 °F 80% 30.65 in - Variable 3.5 mph - N/A   Clear
1:58 AM 18.0 °F 4.8 °F 12.9 °F 81% 30.63 in - ESE 12.7 mph - N/A   Clear
2:58 AM 19.9 °F 7.9 °F 15.1 °F 81% 30.61 in - East 11.5 mph - N/A   Clear
3:58 AM 19.0 °F 6.8 °F 14.0 °F 81% 30.58 in - SE 11.5 mph - N/A   Clear
4:58 AM 18.0 °F 6.1 °F 14.0 °F 84% 30.57 in - SE 10.4 mph - N/A   Clear
5:58 AM 18.0 °F 4.8 °F 14.0 °F 84% 30.55 in - SE 12.7 mph - N/A   Clear
6:58 AM 19.0 °F 8.2 °F 15.1 °F 85% 30.52 in - East 9.2 mph - N/A   Clear
7:58 AM 19.0 °F 4.5 °F 15.1 °F 85% 30.50 in - ESE 16.1 mph - N/A   Clear
8:58 AM 17.1 °F 3.0 °F 14.0 °F 88% 30.48 in - ESE 13.8 mph - N/A   Clear
9:58 AM 16.0 °F 1.7 °F 12.9 °F 88% 30.47 in - SE 13.8 mph - N/A   Clear
10:58 AM 15.1 °F 1.1 °F 12.0 °F 88% 30.45 in - ESE 12.7 mph - N/A   Clear
11:58 AM 17.1 °F 2.5 °F 12.9 °F 84% 30.43 in - ENE 15.0 mph - N/A   Clear
12:58 PM 19.9 °F 3.2 °F 14.0 °F 78% 30.40 in - East 23.0 mph - N/A   Clear
1:58 PM 19.9 °F 3.9 °F 15.1 °F 81% 30.38 in - East 20.7 mph - N/A   Clear
2:58 PM 19.9 °F 4.3 °F 15.1 °F 81% 30.37 in - East 19.6 mph - N/A   Clear
3:58 PM 18.0 °F 3.6 °F 14.0 °F 84% 30.36 in - ESE 15.0 mph - N/A   Clear
4:58 PM 19.0 °F 11.1 °F 14.0 °F 81% 30.36 in - Variable 5.8 mph - N/A   Clear
5:58 PM 19.9 °F 8.6 °F 14.0 °F 78% 30.35 in - SE 10.4 mph - N/A   Clear
6:58 PM 18.0 °F 7.7 °F 12.9 °F 81% 30.35 in - South 8.1 mph - N/A   Clear
7:58 PM 19.0 °F 13.9 °F 14.0 °F 81% 30.35 in - South 3.5 mph - N/A   Mostly Cloudy
8:58 PM 17.1 °F 6.6 °F 10.9 °F 77% 30.35 in - SE 8.1 mph - N/A   Partly Cloudy
9:58 PM 17.1 °F 7.6 °F 12.9 °F 84% 30.35 in - SSE 6.9 mph - N/A   Mostly Cloudy
10:58 PM 17.1 °F 7.6 °F 12.9 °F 84% 30.36 in - East 6.9 mph - N/A   Mostly Cloudy
11:58 PM 18.0 °F 7.7 °F 12.9 °F 81% 30.36 in - SSE 8.1 mph - N/A   Scattered Clouds